Weather History for Estevan Point, BC

Change the Weather History Date:

Saturday, November 3, 2012

  Actual Average Record
Temperature  
Mean Temperature 50 °F -  
Max Temperature 52 °F - - ()
Min Temperature 49 °F - - ()
Degree Days  
Heating Degree Days 14    
Moisture  
Dew Point 51 °F    
Average Humidity 97    
Maximum Humidity 98    
Minimum Humidity 94    
Precipitation  
Precipitation 0.35 in - - ()
Sea Level Pressure  
Sea Level Pressure 29.96 in    
Wind  
Wind Speed 9 mph ()    
Max Wind Speed 17 mph    
Max Gust Speed 30 mph    
T = Trace of Precipitation, MM = Missing Value Source: Averaged Metar Reports

Daily Weather History Graph

Daily Weather History Graph

Search for Another Location

Airport:

Trip Planner

Search our weather history database for the weather conditions in past years. The results will help you decide how hot, cold, wet, or windy it might be!

Date:

Astronomy

Nov. 03, 2012 Rise Set
Actual Time 8:18 AM PDT 6:00 PM PDT
Civil Twilight 7:44 AM PDT 6:33 PM PDT
Nautical Twilight 7:06 AM PDT 7:11 PM PDT
Astronomical Twilight 6:29 AM PDT 7:48 PM PDT
Moon 9:38 PM PDT (11/3) 12:36 PM PDT (11/3)
Length of Visible Light 10h 49m
Length of Day
9h 41m
Waning Gibbous, 79% of the Moon is Illuminated
Nov 3
Waning Gibbous
Nov 6
Last Quarter
Nov 13
New
Nov 20
First Quarter
Nov 28
Full

Hourly Weather History & Observations

Time (PDT) Temp. Dew Point Humidity Pressure Visibility Wind Dir Wind Speed Gust Speed Precip Events Conditions
12:00 AM 51.8 °F 51.1 °F 97% 29.82 in - ESE 17.3 mph 29.9 mph 0.04 in   Unknown
1:00 AM 52.3 °F 51.6 °F 97% 29.84 in - ESE 17.3 mph 23.0 mph N/A   Unknown
2:00 AM 52 °F 52 °F 98% 29.86 in - ESE 10.4 mph - -  
2:00 AM 52.3 °F 51.6 °F 97% 29.86 in - ESE 10.4 mph - N/A   Unknown
3:00 AM 52.0 °F 51.3 °F 97% 29.88 in - SSE 8.1 mph - N/A   Unknown
4:00 AM 51.8 °F 51.1 °F 97% 29.89 in - ESE 4.6 mph - N/A   Unknown
5:00 AM 52 °F 51 °F 96% 29.90 in - ESE 6.9 mph - -  
5:00 AM 51.8 °F 51.3 °F 98% 29.90 in - ESE 6.9 mph - N/A   Unknown
6:00 AM 51.1 °F 50.4 °F 97% 29.91 in - SSE 8.1 mph - 0.01 in   Unknown
7:00 AM 51.1 °F 50.5 °F 98% 29.92 in - ESE 4.6 mph - N/A   Unknown
8:00 AM 51 °F 50 °F 96% 29.92 in - East 6.9 mph - -  
8:00 AM 50.7 °F 50.2 °F 98% 29.92 in - East 6.9 mph - N/A   Unknown
9:00 AM 50.0 °F 49.5 °F 98% 29.94 in - ENE 8.1 mph - N/A   Unknown
10:00 AM 49.6 °F 49.1 °F 98% 29.94 in - ENE 6.9 mph - N/A   Unknown
11:00 AM 51 °F 50 °F 95% 29.96 in - East 8.1 mph - -  
11:00 AM 50.5 °F 50.0 °F 98% 29.96 in - East 8.1 mph - N/A   Unknown
12:00 PM 51.3 °F 50.5 °F 97% 29.97 in - East 10.4 mph - N/A   Unknown
1:00 PM 51.4 °F 50.4 °F 96% 29.98 in - East 9.2 mph - N/A   Unknown
2:00 PM 52 °F 51 °F 95% 29.99 in - East 6.9 mph - -  
2:00 PM 52.0 °F 51.1 °F 97% 29.99 in - East 6.9 mph - N/A   Unknown
3:00 PM 52.3 °F 51.3 °F 96% 29.99 in - East 6.9 mph - N/A   Unknown
4:00 PM 52.0 °F 50.9 °F 96% 30.00 in - East 6.9 mph - N/A   Unknown
5:00 PM 51 °F 50 °F 97% 30.01 in - East 8.1 mph - -  
5:00 PM 51.4 °F 50.4 °F 96% 30.01 in - East 8.1 mph - N/A   Unknown
6:00 PM 51.4 °F 50.2 °F 95% 30.03 in - East 9.2 mph - N/A   Unknown
7:00 PM 51.6 °F 50.5 °F 96% 30.02 in - East 13.8 mph 23.0 mph 0.01 in   Unknown
8:00 PM 51 °F 51 °F 98% 30.06 in - East 15.0 mph - -  
8:00 PM 51.4 °F 50.5 °F 97% 30.06 in - East 15.0 mph 24.2 mph 0.10 in   Unknown
9:00 PM 51.6 °F 50.7 °F 97% 30.07 in - East 15.0 mph 21.9 mph 0.10 in   Unknown
10:00 PM 52.2 °F 51.4 °F 97% 30.08 in - ESE 13.8 mph 19.6 mph 0.09 in   Unknown
11:00 PM 53 °F 52 °F 94% 30.06 in - East 11.5 mph - -  
11:00 PM 52.5 °F 51.8 °F 97% 30.06 in - East 11.5 mph 19.6 mph 0.03 in   Unknown